Miscellaneous Local Product
Issued by NWS Hastings, NE

Home | Current Version | Previous Version | Text Only | Print | Product List | Glossary On
Versions: 1 2 3 4 5 6 7 8 9 10 11 12 13 14 15 16 17 18 19 20 21 22 23 24 25 26 27 28 29 30 31 32 33 34 35 36 37 38 39 40 41 42 43 44 45 46 47 48 49 50
197
AXUS43 KGID 251502
MISGRI

GID CWA HOURLY WEATHER ROUNDUP
NATIONAL WEATHER SERVICE HASTINGS NE
1000 AM CDT WED MAY 25 2016

NOTE: "FAIR" INDICATES FEW OR NO CLOUDS BELOW 12,000 FEET WITH NO
SIGNIFICANT WEATHER AND/OR OBSTRUCTIONS TO VISIBILITY.

...SOUTH CENTRAL NEBRASKA...

CITY           SKY/WX    TMP DP  RH WIND       PRES   REMARKS
GRAND ISLAND   SUNNY     68  59  73 S15       29.86S
HASTINGS       SUNNY     65  58  78 SE15      29.87F
KEARNEY        SUNNY     68  57  68 SE15      29.88S
ORD            SUNNY     67  58  72 SW10      29.84F
YORK           MOSUNNY   68  59  73 S12       29.88R
AURORA         SUNNY     69  62  78 S13       29.86F
LEXINGTON      SUNNY     67  58  72 SE6       29.89S
HOLDREGE       SUNNY     67  57  69 SE14      29.87S
HEBRON         CLOUDY    62  59  91 CALM      29.90S

...NEBRASKA PANHANDLE...

CITY           SKY/WX    TMP DP  RH WIND       PRES   REMARKS
CHADRON        SUNNY     59  51  75 SW10      29.90R
ALLIANCE       SUNNY     58  52  80 W10       29.91S
SCOTTSBLUFF    SUNNY     60  46  59 W7        29.94S
SIDNEY         SUNNY     62  53  72 SW12      29.98S

...WESTERN AND NORTH CENTRAL NEBRASKA...

CITY           SKY/WX    TMP DP  RH WIND       PRES   REMARKS
VALENTINE      SUNNY     64  55  72 W17       29.84S
AINSWORTH      SUNNY     65  57  77 S12       29.84R
ONEILL         SUNNY     65  58  77 S9        29.81F
BROKEN BOW     SUNNY     68  54  60 SW12      29.86F
IMPERIAL       SUNNY     65  53  65 CALM      29.94R
NORTH PLATTE   SUNNY     67  56  67 SW5       29.90R
MCCOOK         SUNNY     69  55  60 E13       29.89R

...EASTERN NEBRASKA...

CITY           SKY/WX    TMP DP  RH WIND       PRES   REMARKS
NORFOLK        CLOUDY    68  60  75 SW7       29.82R
SO SIOUX CITY  CLOUDY    69  61  75 SE18G30   29.78F
TEKAMAH        CLOUDY    69  62  78 S17       29.83F
COLUMBUS       CLOUDY    68  57  68 S12       29.84S
ALBION         SUNNY     65  62  89 SW10      29.85R
OMAHA EPPLEY   CLOUDY    68  63  84 SE15      29.87F
OFFUTT AFB     CLOUDY    67  63  87 S8        29.88F
MILLARD        CLOUDY    68  62  82 SE8       29.86F
LINCOLN        CLOUDY    64  61  90 SE6       29.89S
NEBRASKA CITY  LGT RAIN  65  63  96 S12       29.94S
BEATRICE       CLOUDY    62  59  92 SE6       29.89F
FALLS CITY     LGT RAIN  65  62  90 N8        29.92R

...NORTHERN KANSAS...

CITY           SKY/WX    TMP DP  RH WIND       PRES   REMARKS
GOODLAND       CLOUDY    59  55  87 E7        29.94R
HILL CITY      CLOUDY    63  57  81 E15       29.88F
NORTON         CLOUDY    68  54  60 E14       29.87S
PHILLIPSBURG   CLOUDY    64  57  77 E10       29.89S
SMITH CENTER   CLOUDY    61  57  88 E9        29.89S
RUSSELL        CLOUDY    66  63  90 E10       29.84S
CONCORDIA      CLOUDY    63  59  87 E7        29.88R
SALINA         CLOUDY    71  65  81 S10       29.85F
TOPEKA         CLOUDY    74  61  63 E9        29.88F



USA.gov is the U.S. government's official web portal to all federal, state and local government web resources and services.